User: anonymous   Login
Location: Unspecified
(0.0000°N, 0.0000°E)
Time: 03:31:46
(UTC+00:00)
Language:

GALILEO 8 (264) - Orbit

View from above orbital plane
View from above orbital plane
View from above satellite
View from above satellite

Ground track
Ground track

The orbit data is extracted from the following two-line orbital elements,

1 40545U 15017B   17349.03098360 -.00000080 +00000-0 +00000-0 0  9994
2 40545 055.7613 066.9315 0002647 201.3236 158.6853 01.70475848016910
Epoch (UTC): 15 December 2017 00:44:36
Eccentricity: 0.0002647
inclination: 55.7613°
perigee height: 23214 km
apogee height: 23229 km
right ascension of ascending node: 66.9315°
argument of perigee: 201.3236°
revolutions per day: 1.70475848
mean anomaly at epoch: 158.6853°
orbit number at epoch: 1691

The dashed part of the orbit path shows where the satellite is in the earth's shadow,  

DLR